sat.trackr.live / text

‹ back to catalog

2025-313AB

NORAD 67273 · 2025-313AB

PAYLOAD ACTIVE UNKNOWN

§ Identity

Operator
Country
TBD
Launch date
2025-12-28
Launch site
VOSTO
Launch vehicle
Mass (kg)
RCS (m²)

External: N2YO · Heavens-Above · Gunter

§ Orbital elements

Epoch: 2026-09-20T22:45:09.999360Z

Period
94.64 min
Inclination
97.3878°
Eccentricity
0.0015086
Mean motion
15.21594673 rev/d
Perigee alt
490.7 km
Apogee alt
511.4 km
Semi-major
6,879.2 km
B*
8.2171e-5
RAAN
336.6466°
Arg perigee
41.0262°
Mean anomaly
319.2105°
Rev number
4,049

§ Raw data

2025-313AB1 67273U 25313AB  26263.94803240  .00001789  00000+0  82171-4 0  99952 67273  97.3878 336.6466 0015086  41.0262 319.2105 15.21594673 40499

JSON: /api/v1/satellites/67273 · /tle

For live sub-satellite position, see the globe view (requires WebGL).

§ Visibility from observer

Set your observer location to see the next 7 days of passes ≥ 10°. The values pass through the URL so the page stays shareable.

No JS? Fill the form by hand. The geolocation button needs JavaScript.